Probability
0 0 0 0 0 0 0 0 0 0 0 0 0 2 7 11 13 15 14 12 13 14 11 9 7 5 3 2 2 2 2 2 1 0 1 1 1 0 0 1 1 1 0 0
0 0 0 0 0 0 0 0 0 0 0 0 0 2 4 7 9 11 11 11 11 10 9 9 6 4 2 1 1 1 1 1 0 0 1 2 1 0 0 0 0 0 0 0
0 0 0 0 0 0 0 0 0 0 0 0 0 1 1 2 4 6 7 6 5 4 5 5 4 1 1 0 0 0 1 1 2 2 2 2 1 0 0 0 0 0 0 0
0 0 0 0 0 0 0 0 0 0 0 0 0 0 0 0 1 3 4 3 1 1 2 3 1 0 0 0 0 3 6 8 9 9 7 4 3 1 0 0 0 0 0 0
0 0 0 0 0 0 0 0 0 0 0 0 0 0 0 0 1 1 2 2 1 1 2 2 1 0 0 0 1 5 14 20 20 18 13 9 6 2 1 0 0 0 0 0
0 0 0 0 0 0 0 0 0 0 0 0 0 0 0 0 0 0 1 1 1 1 2 1 0 0 0 0 0 5 14 21 22 20 15 11 7 4 2 1 0 0 0 0
0 0 0 0 0 0 0 0 0 0 0 0 0 0 0 0 0 0 0 0 0 1 1 0 0 1 1 0 1 4 9 13 14 13 10 7 5 4 2 1 0 0 0 0
0 0 0 0 0 0 0 0 0 0 0 0 0 0 0 0 0 0 0 0 0 0 0 0 0 1 1 1 2 4 5 6 6 5 4 3 2 1 1 1 0 0 0 0
0 0 0 0 0 0 0 0 0 0 0 0 0 0 0 0 0 0 0 0 0 0 0 0 0 1 1 2 3 3 2 2 2 2 2 1 0 0 0 0 0 0 0 0
0 0 0 0 0 0 0 0 0 0 0 0 0 0 0 0 0 0 0 0 0 0 0 0 0 0 1 3 3 1 1 1 1 1 1 1 0 0 0 0 0 0 0 0
0 0 0 0 0 0 0 0 0 0 0 0 0 0 0 0 0 0 0 0 0 0 0 0 0 0 1 2 1 1 1 1 0 0 0 0 0 0 0 0 0 0 0 0
0 0 0 0 0 0 0 0 0 0 0 0 0 0 0 0 0 0 0 0 0 0 0 0 0 0 0 0 0 0 0 0 0 0 0 0 0 0 0 0 0 0 0 0
0 0 0 0 0 0 0 0 0 0 0 0 0 0 0 0 0 0 0 0 0 0 1 1 1 0 0 0 0 0 0 0 0 0 0 0 0 0 0 0 0 0 0 0
0 0 0 0 0 0 0 0 0 0 0 0 0 0 0 0 0 0 0 0 0 0 1 2 2 1 0 0 0 0 0 0 0 0 0 0 0 0 0 0 0 0 0 0
0 0 0 0 0 0 0 0 0 0 0 0 0 0 0 0 0 0 0 0 0 0 1 2 2 1 0 0 0 0 0 0 0 0 0 0 0 0 0 0 0 0 0 0
0 0 0 0 0 0 0 0 0 0 0 0 0 0 0 0 0 0 0 0 0 0 0 1 1 0 0 0 0 0 0 0 0 0 0 0 0 0 0 0 0 0 0 0
0 0 0 0 0 0 0 0 0 0 0 0 0 0 0 0 0 0 0 0 0 0 0 0 0 0 0 0 0 0 0 0 0 0 0 0 0 0 0 0 0 0 0 0
0 0 0 0 0 0 0 0 0 0 0 0 0 0 0 0 0 0 0 0 0 0 0 0 0 0 0 0 0 0 0 0 0 0 0 0 0 0 0 0 0 0 0 0
0 0 0 0 0 0 0 0 0 0 0 0 0 0 0 0 0 0 0 0 0 0 0 0 0 0 0 0 0 0 0 0 0 0 0 0 0 0 0 0 0 0 0 0
0 0 0 0 0 0 0 0 0 0 0 0 0 0 0 0 0 0 0 0 0 0 0 0 0 0 0 0 0 0 0 0 0 0 0 0 0 0 0 0 0 0 0 0
0 0 0 0 0 0 0 0 0 0 0 0 0 0 0 0 0 0 0 0 0 0 0 0 0 0 0 0 0 0 0 0 0 0 0 0 0 0 0 0 0 0 0 0
0 0 0 0 0 0 0 0 0 0 0 0 0 0 0 0 0 0 0 0 0 0 0 0 0 0 0 0 0 0 0 0 0 0 0 0 0 0 0 0 0 0 0 0
0 0 0 0 0 1 1 0 0 0 0 0 0 0 0 0 0 0 0 0 0 0 0 0 0 0 0 0 0 0 0 0 0 0 0 0 0 0 0 0 0 0 0 0
0 0 0 0 0 1 1 1 1 0 0 0 0 0 0 0 0 0 0 0 0 0 0 0 0 0 0 0 0 0 0 0 0 0 0 0 0 0 0 0 0 0 0 0
0 0 0 0 1 1 2 2 1 0 0 0 0 0 0 0 0 0 0 0 0 0 0 0 0 0 0 0 0 0 1 1 1 0 0 0 0 0 0 0 0 0 0 0
0 0 0 1 3 3 2 1 0 0 0 0 0 0 0 0 0 0 0 0 0 0 0 0 0 0 0 0 0 1 2 2 2 1 0 0 0 0 0 0 0 0 0 0
Wind_Speed
5 8 6 5 6 7 7 7 4 4 1 3 3 5 7 6 5 5 6 7 7 7 8 7 6 6 6 6 6 5 5 5 4 3 2 2 2 1 1 1 1 0 2 2
7 6 4 3 3 5 6 5 0 4 2 2 3 5 6 6 5 4 5 7 7 7 8 8 7 7 7 6 6 5 5 5 4 2 1 1 1 2 1 1 1 1 2 3
9 5 1 4 4 4 4 4 2 2 4 3 4 6 7 7 6 6 6 7 8 8 9 9 8 8 7 7 7 5 5 5 4 3 3 2 3 3 3 2 2 2 3 4
5 2 4 6 4 5 2 2 1 4 6 3 3 2 6 7 8 9 8 9 9 9 9 9 9 9 8 8 7 6 6 6 5 5 4 4 4 4 4 3 3 3 4 5
3 2 4 4 2 3 3 2 3 4 3 2 2 3 6 7 9 10 10 11 10 10 10 9 9 9 8 8 7 7 7 6 6 5 4 5 5 4 4 4 4 6 5 5
4 1 3 1 3 3 6 6 5 6 7 1 2 3 4 6 8 10 12 11 10 10 9 8 8 7 7 7 7 7 6 6 5 5 5 5 5 5 6 6 6 6 5 5
4 5 4 4 6 7 6 6 4 5 3 3 2 3 4 5 6 7 10 11 11 10 9 8 8 7 7 7 6 5 5 5 5 5 4 4 5 5 6 7 6 7 7 6
4 4 5 5 4 2 4 6 6 6 5 3 4 1 5 6 6 6 7 9 9 9 8 7 7 6 6 6 6 5 5 4 4 4 3 3 4 6 5 5 7 7 7 7
4 0 4 2 2 4 3 3 5 5 3 2 3 2 5 7 8 9 10 10 10 9 8 7 7 6 6 6 5 5 4 4 4 3 3 4 5 5 6 6 7 7 6 7
3 4 4 5 6 2 4 2 3 5 5 3 2 1 3 8 10 11 11 11 10 9 9 8 7 7 6 6 5 4 4 4 4 4 5 4 5 5 6 7 7 8 8 8
4 5 4 6 6 3 5 4 4 4 5 6 3 3 5 5 7 9 11 10 9 9 9 9 8 7 7 6 5 5 4 5 5 5 5 5 6 6 7 7 8 8 8 8
2 5 4 2 2 2 5 3 4 5 3 4 6 1 7 5 6 7 7 8 8 9 9 9 9 8 7 6 5 5 4 5 5 5 5 6 6 7 8 8 8 8 9 9
4 5 6 5 7 7 5 4 5 6 6 6 7 1 8 6 6 7 7 8 9 9 9 9 8 8 7 6 5 4 4 5 5 5 6 6 7 7 8 8 8 9 9 10
5 5 7 7 5 2 4 5 6 8 8 8 8 7 3 5 7 7 7 8 9 10 10 9 9 8 6 5 5 4 5 4 5 5 6 7 7 8 8 8 9 9 9 10
6 8 8 8 6 7 9 9 8 10 11 11 9 8 6 3 4 5 7 8 9 9 10 10 9 7 7 6 5 5 4 4 5 6 7 7 7 7 8 9 9 9 10 11
5 9 10 10 9 9 11 11 11 10 10 10 10 8 2 1 3 5 7 9 9 9 10 9 9 7 7 6 6 5 5 4 5 6 7 7 8 8 8 9 9 9 10 10
7 8 11 12 9 9 11 8 8 7 6 7 7 3 3 4 5 7 8 8 8 8 9 9 8 7 6 6 5 5 5 5 5 6 7 8 8 8 9 9 10 10 10 10
8 9 8 10 9 11 4 0 4 6 6 6 6 3 2 3 4 5 6 8 8 8 8 8 8 7 7 6 6 5 5 5 6 7 7 8 8 9 9 9 10 10 9 10
6 8 8 9 11 10 6 5 5 6 6 5 5 4 4 3 5 7 9 9 8 8 8 7 7 7 6 6 5 5 6 6 6 7 7 8 8 9 9 10 10 10 10 10
6 7 8 8 9 9 2 4 3 5 7 2 5 5 6 7 7 3 7 9 9 8 8 7 7 7 6 6 5 6 6 7 7 7 7 7 8 9 10 10 10 10 9 10
7 7 9 9 9 7 4 4 6 6 4 3 3 5 7 9 7 1 6 8 9 9 10 9 8 8 7 6 6 7 7 7 7 7 7 8 8 9 10 10 9 10 10 10
7 6 6 6 8 2 7 2 3 7 8 5 5 6 7 9 8 5 6 8 9 10 11 11 9 8 7 7 7 7 8 7 6 7 8 9 9 9 8 9 10 10 10 11
6 5 4 3 3 6 5 5 7 9 9 9 9 9 7 9 9 9 9 8 9 10 10 10 10 9 8 8 8 8 7 6 7 8 9 9 9 9 9 9 10 10 9 9
3 1 4 4 1 4 7 8 10 10 11 11 10 9 7 8 9 8 8 8 8 9 9 9 9 9 8 8 8 8 7 7 7 9 9 9 9 9 9 7 8 8 8 9
5 3 5 7 4 2 6 12 13 12 11 10 9 7 6 6 6 6 6 6 6 6 6 7 7 8 8 7 8 8 7 7 8 9 9 9 9 9 8 8 8 9 9 8
5 5 6 4 8 7 8 11 12 11 11 11 10 9 8 6 6 5 4 3 3 4 5 6 6 7 6 6 7 7 7 8 9 9 9 8 8 7 8 8 8 8 10 9
Wind_Direction
216 250 279 328 315 309 305 299 316 65 72 238 192 156 152 154 173 174 163 153 147 146 145 145 148 151 149 144 145 151 148 144 167 172 190 190 192 215 215 200 91 304 330 337
235 253 316 305 278 268 269 276 281 119 135 237 158 150 149 165 176 181 169 161 156 160 158 158 165 168 166 162 163 169 175 173 193 169 211 254 286 259 256 274 142 300 324 315
274 337 12 255 251 261 266 299 330 147 152 169 189 173 173 178 182 188 183 174 172 177 173 172 180 183 180 178 184 186 184 190 203 199 214 209 222 241 231 245 243 294 306 303
268 292 255 264 270 283 305 31 197 180 211 148 245 217 165 178 189 193 189 187 182 187 186 184 186 190 192 193 193 196 197 202 204 215 234 250 271 286 300 292 298 293 283 293
282 264 262 270 343 290 44 138 189 207 237 204 206 271 130 174 191 190 189 191 188 189 190 193 195 195 198 199 199 197 199 205 208 223 229 247 267 284 286 288 282 284 282 276
280 231 277 39 82 128 143 167 183 215 231 217 48 295 116 159 183 179 183 187 189 191 192 196 199 199 202 201 201 202 199 206 209 220 232 253 277 289 295 291 295 285 284 279
200 177 159 169 160 161 214 249 240 214 209 76 100 281 75 122 161 175 178 180 186 189 193 195 199 200 201 203 202 201 195 203 210 219 235 251 271 277 272 283 290 290 292 289
254 188 166 197 256 221 229 288 324 332 356 70 153 6 97 134 157 179 184 182 186 191 193 196 196 195 192 186 183 187 191 200 207 220 236 256 268 275 285 293 299 295 294 301
291 87 125 163 230 265 219 268 335 294 283 293 93 116 146 165 182 189 190 191 193 191 187 186 179 176 170 170 172 176 182 199 217 233 243 255 268 285 294 290 274 283 291 290
298 276 162 150 169 142 312 301 251 296 327 329 109 156 120 172 187 188 193 196 193 187 183 173 165 163 159 161 160 172 192 214 233 239 253 264 271 274 277 282 295 294 290 287
280 273 190 196 229 210 185 209 264 294 319 310 339 70 95 170 186 194 196 197 193 188 179 170 165 160 162 167 173 188 202 220 234 251 260 272 276 283 283 281 283 286 286 286
254 284 279 211 105 307 263 260 244 280 283 280 298 50 125 178 192 201 203 190 187 182 173 168 165 168 176 185 195 204 219 232 245 258 262 265 274 280 282 285 289 288 285 283
185 254 258 190 178 189 223 228 257 276 280 271 280 356 133 179 210 208 208 190 179 177 172 170 173 181 189 196 206 221 237 248 259 264 264 270 277 282 284 289 289 288 287 286
242 262 285 308 328 301 249 227 235 258 267 274 274 293 218 211 212 205 201 194 183 178 178 182 184 191 196 202 210 229 248 259 264 272 276 279 284 287 288 289 289 288 288 288
241 257 261 275 279 275 280 278 258 254 273 284 291 292 296 260 220 202 190 183 184 184 188 192 196 194 198 206 214 230 249 256 269 278 283 286 289 288 286 287 288 289 289 288
235 272 271 266 261 262 270 272 270 261 261 267 275 282 324 124 176 182 187 189 196 198 198 197 199 200 205 212 221 230 247 258 265 275 284 290 291 288 288 290 290 290 291 291
232 252 265 269 268 265 262 261 263 256 247 260 274 312 122 183 194 198 197 202 211 209 203 201 202 204 207 212 217 232 245 259 266 274 283 288 289 289 292 294 296 297 296 293
248 248 258 264 261 256 275 65 268 263 257 251 271 277 209 218 205 203 205 211 217 214 207 202 202 200 202 203 209 225 248 255 266 275 283 288 289 290 293 294 297 298 296 296
237 236 250 257 252 252 247 198 216 241 262 244 247 238 195 175 211 216 204 212 219 215 207 202 202 199 198 205 212 227 249 260 269 277 285 290 293 292 293 295 299 300 297 295
195 227 247 243 260 262 274 113 165 243 255 202 210 221 195 190 247 251 170 193 207 204 195 193 192 195 198 209 213 234 253 262 272 282 288 291 290 288 290 295 297 297 295 291
198 206 236 245 253 259 55 114 186 240 354 37 231 232 211 218 257 22 159 185 198 198 194 192 195 201 205 204 211 236 257 267 278 286 287 285 286 285 284 289 290 291 291 294
254 237 225 241 250 265 67 167 263 358 353 333 303 276 249 244 245 222 202 198 200 201 200 196 199 205 204 203 213 237 254 268 277 280 281 283 285 286 289 288 288 289 290 289
251 306 301 289 344 50 21 352 351 341 325 321 313 298 278 263 254 240 228 218 212 209 205 202 204 208 206 206 216 240 255 264 269 273 277 281 284 283 282 284 286 285 284 286
168 32 275 267 250 37 28 20 6 352 335 325 316 306 288 269 265 256 243 230 222 215 208 203 207 212 213 212 219 234 248 254 260 267 273 276 278 279 280 280 282 288 294 295
356 293 272 262 314 331 40 17 2 354 352 350 346 339 323 300 287 273 257 244 232 218 209 204 210 217 222 220 226 235 240 244 254 263 268 273 275 278 284 279 280 286 289 295
8 335 308 347 20 349 8 6 3 7 10 8 4 5 6 352 333 319 300 280 251 221 200 200 209 221 229 230 237 242 240 240 250 260 264 270 274 280 281 284 283 253 247 253